Regional Weather Roundup
Issued by NWS Binghamton, NY

Home | Current Version | Previous Version | Text Only | Print | Product List | Glossary On
Versions: 1 2 3 4 5 6 7 8 9 10 11 12 13 14 15 16 17 18 19 20 21 22 23 24 25 26 27 28 29 30 31 32 33 34 35 36 37 38 39 40 41 42 43 44 45 46 47 48 49 50
000
ASUS41 KBGM 301210
RWRBGM

REGIONAL WEATHER ROUNDUP
NATIONAL WEATHER SERVICE BINGHAMTON NY
800 AM EDT SAT APR 30 2016

Note: "fair" indicates few or no clouds below 12,000 feet with no
significant weather and/or obstructions to visibility.

* = Station(s) that does not report precipitation, such as rain,
snow, etc, also no thunder or fog.

NYZ009-015>018-022>025-036-037-044>046-055>057-062-301300
...Central New York...

CITY           SKY/WX    TMP DP  RH WIND       PRES   REMARKS
Binghamton     CLOUDY    40  39  97 NE3       30.17F
Cortland       PTSUNNY   45  41  87 CALM      30.20S
Dansville      CLOUDY    44  42  93 CALM      30.20S
Elmira         CLOUDY    44  41  89 CALM      30.20R FOG
Ithaca         CLOUDY    44  41  89 CALM      30.20S
Hamilton       SUNNY     46  39  76 CALM      30.19F
Hornell        CLOUDY    43  41  93 CALM      30.23R FOG
Monticello     SUNNY     41  39  93 CALM      30.21R
Norwich        MOSUNNY   45  39  81 CALM      30.21F
Penn Yan       CLOUDY    46  43  89 CALM      30.20S FOG
Rome           CLOUDY    44  41  89 E3        30.24R
Sidney         CLOUDY    43  43 100 CALM      30.20F
Syracuse       MOSUNNY   48  43  82 W3        30.20R
$$

PAZ038>040-043-044-047-048-072-301300
...Northeast Pennsylvania...

CITY           SKY/WX    TMP DP  RH WIND       PRES   REMARKS
Hazleton       CLOUDY    43  36  75 CALM      30.22R
Scranton       CLOUDY    44  39  82 E3        30.20S
$$
&&
KEY
WCI = Wind Chill Index
VSB = Visibility
HX  = Heat Index
$$



USA.gov is the U.S. government's official web portal to all federal, state and local government web resources and services.